Regional Weather Roundup
Issued by NWS

Home | Current Version | Previous Version | Graphics & Text | Print | Product List | Glossary Off
Versions: 1 2 3 4 5 6 7 8 9 10 11 12 13 14 15 16 17 18 19 20 21 22 23 24 25 26 27 28 29 30 31 32 33 34 35 36 37 38 39 40 41 42 43 44 45 46 47 48 49 50

000
ASUS43 KTOP 271459
RWRKS

WEATHER ROUNDUP FOR KANSAS
NATIONAL WEATHER SERVICE GOODLAND KS
1000 AM CDT FRI MAY 27 2016

NOTE:  "FAIR" INDICATES FEW OR NO CLOUDS BELOW 12,000 FEET WITH NO
SIGNIFICANT WEATHER AND/OR OBSTRUCTIONS TO VISIBILITY.

KSZ001>006-013>018-027>032-041>047-271600-
NORTHWEST KANSAS

CITY           SKY/WX    TMP DP  RH WIND       PRES   REMARKS
GOODLAND       MOSUNNY   56  52  86 NE9       29.73S
HAYS           CLOUDY    34 N/A N/A SE9       29.72R
HILL CITY      CLOUDY    58  56  93 NE7       29.74F
RUSSELL        CLOUDY    62  58  86 SE8       29.71R
$$

KSZ061>065-074>080-084>089-271600-
SOUTHWEST KANSAS

CITY           SKY/WX    TMP DP  RH WIND       PRES   REMARKS
DODGE CITY     CLOUDY    55  54  96 W12       29.71S
ELKHART          N/A     61  43  51 W15         N/A
GARDEN CITY    SUNNY     62  53  72 N7        29.70F
GREAT BEND     CLOUDY    63  55  77 SE16      29.69R
LIBERAL        SUNNY     63  46  55 NW21      29.73F
$$

KSZ066>073-081>083-090>101-271600-
SOUTHEAST KANSAS

CITY           SKY/WX    TMP DP  RH WIND       PRES   REMARKS
CHANUTE        CLOUDY    66  60  81 SE8       29.75F
COFFEYVILLE    CLOUDY    70  63  78 SE12      29.72F
HUTCHINSON     CLOUDY    65  61  87 SE12      29.70S
MEDICINE LODGE   N/A     66  61  84 SE7       29.69S
NEWTON         CLOUDY    66  57  72 SE15G23   29.73F
PARSONS        CLOUDY    67  62  84 MISG      29.75F
WICHITA INTL   CLOUDY    68  63  84 SE14      29.70S
WICHITA JABRA  PTSUNNY   66  62  87 SE14      29.71S
WINFIELD       CLOUDY    67  63  87 E10       29.71S
$$

KSZ007>012-019>026-033>040-048>060-102>105-271600-
NORTHEAST KANSAS

CITY           SKY/WX    TMP DP  RH WIND       PRES   REMARKS
CONCORDIA      CLOUDY    61  58  90 E5        29.76R
EMPORIA        CLOUDY    64  59  83 SE14      29.73F
LAWRENCE       CLOUDY    64  60  87 SW5       29.76S
MANHATTAN      CLOUDY    66  59  78 SE9       29.76R
OLATHE IND     CLOUDY    65  61  87 S9        29.77R
OLATHE EXE     PTSUNNY   65  61  87 S6        29.76R
SALINA         CLOUDY    66  60  81 SE8       29.73R
TOPEKA BILLARD CLOUDY    63  60  90 S3        29.76S
TOPEKA FORBES  CLOUDY    64  60  87 SE5       29.76R
$$




USA.gov is the U.S. government's official web portal to all federal, state and local government web resources and services.